Flag Weather past 2 weeks in Köniz, Bern, Switzerland

Now
48 °F

Low clouds.


Feels Like: 48 °F
Forecast: 37 / 54 °F
Wind: 2 mph from North

Location: Bern / Belp

Current Time: Nov 27, 2014 at 1:28:18 PM

Latest Report: Nov 27, 2014 at 12:50 PM


Visibility: 3 mi

Pressure: 29.77 "Hg

Humidity: 87%

Dew point: 45 °F

Location of KönizLocation

Historic Weather in Köniz — Graph

°F

Köniz temperature yesterday

Maximum temperature yesterday: 52 °F (at 1:50 PM)
Minimum temperature yesterday: 46 °F (at 12:20 AM)
Average temperature yesterday: 48 °F

Past Weeks' High & Low Weather Summary

 TemperatureHumidityPressure
High63 °F (Nov 24, 2:20 PM)100% (Nov 12, 6:20 PM)30.24 "Hg (Nov 12, 6:20 PM)
Low30 °F (Nov 20, 12:20 AM)58% (Nov 19, 2:20 PM)29.56 "Hg (Nov 15, 4:50 PM)
Average44 °F94%29.94 "Hg
* Reported Nov 12 12:20 PM — Nov 27 12:20 PM, Köniz, Weather by CustomWeather, © 2014

Note: Actual official high and low records may vary slightly from our data, if they occured in-between our weather recording intervals... More about our weather records

Advertising

Köniz weather history for previous 24 hours

 ConditionsComfort  
Time TempWeatherWind HumidityBarometerVisibility
12:20 PM
Nov 27
48 °FFog.1 mph87%29.77 "Hg3 mi
11:50 AM46 °FLow clouds.No wind93%29.77 "Hg3 mi
11:20 AM48 °FLow clouds.2 mph87%29.77 "Hg3 mi
10:50 AM46 °FFog.3 mph100%29.77 "Hg3 mi
10:20 AM46 °FLow clouds.3 mph93%29.77 "Hg3 mi
9:20 AM46 °FLow clouds.1 mph93%29.80 "Hg4 mi
8:50 AM46 °FLow clouds.2 mph93%29.77 "Hg5 mi
8:20 AM46 °FFog.No wind93%29.77 "Hg3 mi
7:50 AM45 °FFog.3 mph100%29.77 "Hg3 mi
7:20 AM46 °FLow clouds.5 mph93%29.77 "HgN/A
6:50 AM46 °FLow clouds.3 mph93%29.77 "Hg5 mi
6:20 AM46 °FLow clouds.2 mph93%29.77 "Hg6 mi
5:50 AM46 °FLow clouds.3 mph100%29.80 "Hg5 mi
5:20 AM46 °FPassing clouds.3 mph100%29.80 "Hg4 mi
4:50 AM46 °FPassing clouds.1 mph100%29.80 "Hg6 mi
4:20 AM46 °FLow clouds.1 mph100%29.80 "HgN/A
3:50 AM48 °FPassing clouds.2 mph94%29.80 "Hg4 mi
3:20 AM48 °FPassing clouds.1 mph94%29.83 "Hg4 mi
2:50 AM48 °FLow clouds.2 mph94%29.83 "Hg5 mi
2:20 AM48 °FLow clouds.2 mph94%29.83 "Hg4 mi
1:50 AM48 °FLow clouds.3 mph94%29.83 "Hg5 mi
1:20 AM48 °FLow clouds.1 mph94%29.83 "Hg6 mi
12:50 AM48 °FFog.1 mph94%29.86 "Hg2 mi
12:20 AM48 °FLow clouds.1 mph94%29.86 "Hg3 mi
11:50 PM
Nov 26
48 °FLow clouds.2 mph94%29.86 "Hg3 mi
11:20 PM48 °FPartly cloudy.2 mph94%29.89 "Hg3 mi
10:50 PM48 °FPartly cloudy.2 mph94%29.89 "Hg4 mi
10:20 PM48 °FLow clouds.3 mph94%29.89 "Hg4 mi
9:50 PM48 °FLow clouds.2 mph94%29.89 "Hg4 mi
9:20 PM48 °FLow clouds.No wind94%29.89 "Hg5 mi
8:50 PM48 °FLow clouds.2 mph94%29.89 "Hg4 mi
8:20 PM48 °FLow clouds.2 mph94%29.89 "Hg4 mi
7:50 PM48 °FLow clouds.3 mph94%29.89 "Hg4 mi
7:20 PM48 °FPassing clouds.3 mph94%29.89 "Hg4 mi
6:50 PM48 °FPassing clouds.2 mph94%29.89 "Hg4 mi
6:20 PM48 °FPartly cloudy.3 mph94%29.92 "Hg4 mi
5:50 PM48 °FPartly cloudy.2 mph94%29.92 "Hg4 mi
5:20 PM48 °FPartly cloudy.5 mph94%29.89 "Hg4 mi
4:50 PM48 °FPassing clouds.5 mph94%29.89 "Hg4 mi
4:20 PM50 °FBroken clouds.5 mph88%29.89 "Hg5 mi
3:50 PM50 °FBroken clouds.7 mph88%29.89 "Hg5 mi
3:20 PM52 °FPartly sunny.5 mph88%29.92 "Hg5 mi
2:50 PM52 °FBroken clouds.5 mph82%29.92 "Hg5 mi
2:20 PM52 °FPartly sunny.2 mph82%29.92 "Hg5 mi
1:50 PM52 °FPartly sunny.No wind82%29.92 "Hg4 mi
1:20 PM50 °FBroken clouds.No wind88%29.92 "Hg4 mi
Weather by CustomWeather, © 2014

See weather overviewHow to use our weather pages